{"data":{"norad_id":58012,"epoch":"2026-09-20T16:57:33.474816Z","epoch_age_seconds":119792,"freshness":"FRESH","line1":"1 58012U 23153X   26263.70663744  .00000184  00000+0  16218-4 0  9990","line2":"2 58012  43.0055  45.5175 0001322 279.9126  80.1576 15.27579120164722","mean_motion":15.2757912,"eccentricity":0.0001322,"inclination_deg":43.0055,"raan_deg":45.5175,"arg_perigee_deg":279.9126,"mean_anomaly_deg":80.1576,"bstar":1.6218e-5,"rev_number":16472,"period_min":94.26680301836,"perigee_km":482.14468192725,"apogee_km":483.95878022774,"semimajor_km":6861.1887310775,"source":"CELESTRAK","updated_at":"2026-09-21T09:00:33.757189Z"}}